N8JLK-WX Weather Reports


time (UTC)temp
C
wind
direction
speed
KPH
gust
KPH
rain 1hr
cm
rain 24hr
cm
rain mn
cm
humidity
%
barometer
mb
20260508085532 5 96 4.8 6.4 0.00 0.00 0.00 75 1013.4
20260508084515 5 82 3.2 6.4 0.00 0.00 0.00 75 1013.6
20260508083544 5 96 4.8 6.4 0.00 0.00 0.00 74 1013.7
20260508082519 6 104 3.2 4.8 0.00 0.00 0.00 72 1013.7
20260508081526 6 102 3.2 6.4 0.00 0.00 0.00 72 1013.7
20260508080523 6 92 3.2 4.8 0.00 0.00 0.00 71 1013.7
20260508075519 6 96 4.8 9.7 0.00 0.00 0.00 70 1013.7
20260508074520 6 34 4.8 9.7 0.00 0.00 0.00 68 1013.8
20260508073516 6 71 4.8 8.0 0.00 0.00 0.00 67 1013.8
20260508072529 6 98 3.2 6.4 0.00 0.00 0.00 65 1013.8
20260508071524 6 98 3.2 4.8 0.00 0.00 0.00 64 1013.8
20260508070522 6 102 3.2 4.8 0.00 0.00 0.00 64 1013.8
20260508065559 6 122 4.8 8.0 0.00 0.00 0.00 63 1013.8
20260508064529 6 99 4.8 9.7 0.00 0.00 0.00 63 1013.7
20260508063526 6 102 3.2 6.4 0.00 0.00 0.00 63 1013.8
20260508062520 6 83 3.2 6.4 0.00 0.00 0.00 63 1013.9
20260508061516 6 93 3.2 6.4 0.00 0.00 0.00 63 1013.9
20260508060529 6 97 3.2 4.8 0.00 0.00 0.00 63 1014.0
20260508055524 6 122 3.2 4.8 0.00 0.00 0.00 63 1014.1
20260508054542 6 109 1.6 4.8 0.00 0.00 0.00 63 1014.2
20260508053517 6 106 3.2 3.2 0.00 0.00 0.00 63 1014.4
20260508052518 6 112 3.2 4.8 0.00 0.00 0.00 63 1014.5
20260508051532 6 113 1.6 4.8 0.00 0.00 0.00 62 1014.4
20260508050528 6 110 3.2 4.8 0.00 0.00 0.00 62 1014.4
20260508045525 6 84 3.2 4.8 0.00 0.00 0.00 62 1014.5
20260508044518 6 113 3.2 4.8 0.00 0.00 0.00 61 1014.5
20260508043531 6 111 1.6 4.8 0.00 0.00 0.00 61 1014.5
20260508042526 6 95 3.2 4.8 0.00 0.00 0.00 60 1014.5
20260508041522 6 87 3.2 4.8 0.00 0.00 0.00 60 1014.5
20260508040518 6 109 3.2 6.4 0.00 0.00 0.00 60 1014.6
20260508035539 6 105 3.2 8.0 0.00 0.00 0.00 60 1014.6
20260508034608 6 78 3.2 6.4 0.00 0.00 0.00 60 1014.7
20260508033600 5 100 3.2 8.0 0.00 0.00 0.00 60 1014.6
20260508032557 5 98 3.2 4.8 0.00 0.00 0.00 62 1014.6
20260508031517 4 105 3.2 4.8 0.00 0.00 0.00 62 1014.6
20260508030551 4 0.0 0.0 0.00 0.00 0.00 61 1014.6
20260508025526 4 0.0 0.0 0.00 0.00 0.00 61 1014.6
20260508024543 4 0.0 0.0 0.00 0.00 0.00 60 1014.5
20260508023517 4 0.0 0.0 0.00 0.00 0.00 60 1014.5
20260508022533 5 0.0 0.0 0.00 0.00 0.00 58 1014.5
20260508021528 5 0.0 0.0 0.00 0.00 0.00 57 1014.4
20260508020522 5 0.0 0.0 0.00 0.00 0.00 56 1014.4
20260508015520 5 0.0 0.0 0.00 0.00 0.00 55 1014.4
20260508014531 5 0.0 0.0 0.00 0.00 0.00 54 1014.3
20260508013527 6 0.0 0.0 0.00 0.00 0.00 53 1014.2
20260508012522 6 0.0 0.0 0.00 0.00 0.00 51 1014.2
20260508011558 6 0.0 0.0 0.00 0.00 0.00 49 1014.1
20260508010526 7 107 1.6 3.2 0.00 0.00 0.00 47 1014.1
20260508005528 7 0.0 0.0 0.00 0.00 0.00 44 1014.1
20260508004537 8 0.0 0.0 0.00 0.00 0.00 44 1014.2
20260508003518 8 118 1.6 4.8 0.00 0.00 0.00 43 1014.1
20260508002532 8 103 0.0 3.2 0.00 0.00 0.00 42 1013.9
20260508001548 9 89 3.2 4.8 0.00 0.00 0.00 42 1014.0
20260508000522 9 103 3.2 6.4 0.00 0.00 0.00 42 1013.9
20260507235517 10 95 3.2 4.8 0.00 0.00 0.00 41 1013.8
20260507234526 10 77 4.8 6.4 0.00 0.00 0.00 41 1013.8
20260507233527 10 81 3.2 4.8 0.00 0.00 0.00 41 1013.7
20260507232528 10 72 4.8 6.4 0.00 0.00 0.00 40 1013.7
20260507231524 10 84 4.8 6.4 0.00 0.00 0.00 40 1013.9
20260507230520 10 106 4.8 6.4 0.00 0.00 0.00 40 1013.9
20260507225533 10 65 4.8 9.7 0.00 0.00 0.00 40 1014.0
20260507224530 10 67 6.4 8.0 0.00 0.00 0.00 39 1013.9
20260507223605 10 71 4.8 6.4 0.00 0.00 0.00 39 1013.9
20260507222520 11 81 6.4 9.7 0.00 0.00 0.00 39 1014.0
20260507221535 11 78 4.8 6.4 0.00 0.00 0.00 38 1014.1
20260507220529 11 66 6.4 9.7 0.00 0.00 0.00 37 1014.0
20260507215546 11 67 4.8 8.0 0.00 0.00 0.00 40 1013.8
20260507214541 11 62 6.4 9.7 0.00 0.00 0.00 39 1013.8
20260507213528 11 78 6.4 9.7 0.00 0.00 0.00 41 1013.7
20260507212524 11 70 4.8 9.7 0.00 0.00 0.00 44 1013.7
20260507211519 11 78 4.8 8.0 0.00 0.00 0.00 44 1013.4
20260507210526 11 42 6.4 8.0 0.00 0.00 0.00 46 1013.4
20260507205523 11 78 3.2 6.4 0.00 0.00 0.00 47 1013.4
20260507204518 11 76 4.8 6.4 0.00 0.00 0.00 47 1013.3
20260507203520 11 59 6.4 8.0 0.00 0.00 0.00 46 1013.3
20260507202516 11 109 6.4 8.0 0.00 0.00 0.00 46 1013.3
20260507201550 12 92 4.8 8.0 0.00 0.00 0.00 44 1013.1
20260507200524 13 81 4.8 6.4 0.00 0.00 0.00 44 1013.1
20260507195540 13 84 1.6 3.2 0.00 0.00 0.00 44 1013.2
20260507194533 13 95 1.6 3.2 0.00 0.00 0.00 44 1013.3
20260507193529 13 87 3.2 3.2 0.00 0.00 0.00 43 1013.4
20260507192524 13 80 3.2 4.8 0.00 0.00 0.00 43 1013.4
20260507191520 13 56 3.2 4.8 0.00 0.00 0.00 44 1013.4
20260507190517 13 93 3.2 4.8 0.00 0.00 0.00 43 1013.4
20260507185530 13 76 4.8 6.4 0.00 0.00 0.00 43 1013.4
20260507184527 13 115 4.8 6.4 0.00 0.00 0.00 42 1013.6
20260507183520 13 112 3.2 6.4 0.00 0.00 0.00 41 1013.6
20260507182555 13 106 3.2 4.8 0.00 0.00 0.00 41 1013.7
20260507181529 13 86 3.2 6.4 0.00 0.00 0.00 40 1013.6
20260507180524 14 75 4.8 6.4 0.00 0.00 0.00 39 1013.6
20260507175521 14 89 3.2 6.4 0.00 0.00 0.00 39 1013.6
20260507174537 15 74 3.2 6.4 0.00 0.00 0.00 39 1013.7
20260507172525 15 74 3.2 6.4 0.00 0.00 0.00 37 1013.8
20260507171541 16 93 3.2 4.8 0.00 0.00 0.00 38 1013.9
20260507170536 16 72 4.8 6.4 0.00 0.00 0.00 40 1013.9
20260507165530 15 89 3.2 4.8 0.00 0.00 0.00 42 1013.9
20260507164520 14 94 3.2 4.8 0.00 0.00 0.00 40 1013.9
20260507163608 16 69 4.8 8.0 0.00 0.00 0.00 39 1013.8
20260507162523 16 93 4.8 6.4 0.00 0.00 0.00 40 1013.8
20260507161518 15 96 4.8 8.0 0.00 0.00 0.00 38 1013.9
20260507160519 16 98 3.2 6.4 0.00 0.00 0.00 36 1013.8
20260507155552 17 103 3.2 4.8 0.00 0.00 0.00 35 1013.8
20260507154547 17 89 4.8 8.0 0.00 0.00 0.00 33 1013.8
20260507153523 17 80 3.2 6.4 0.00 0.00 0.00 35 1013.9
20260507152518 17 89 3.2 6.4 0.00 0.00 0.00 34 1014.0
20260507151554 18 71 3.2 4.8 0.00 0.00 0.00 34 1013.9
20260507150529 19 82 3.2 4.8 0.00 0.00 0.00 36 1013.9
20260507145523 18 96 3.2 6.4 0.00 0.00 0.00 33 1014.0
20260507144521 18 90 1.6 4.8 0.00 0.00 0.00 35 1014.0
20260507143540 19 92 3.2 4.8 0.00 0.00 0.00 34 1014.0
20260507142515 18 74 3.2 6.4 0.00 0.00 0.00 35 1014.1
20260507141523 19 101 3.2 4.8 0.00 0.00 0.00 38 1014.2
20260507140518 19 108 1.6 3.2 0.00 0.00 0.00 40 1014.3
20260507135520 18 75 1.6 4.8 0.00 0.00 0.00 42 1014.4
20260507134533 17 96 3.2 8.0 0.00 0.00 0.00 44 1014.4
20260507133528 17 91 1.6 3.2 0.00 0.00 0.00 46 1014.4
20260507132523 16 66 1.6 4.8 0.00 0.00 0.00 50 1014.7
20260507131539 14 97 3.2 4.8 0.00 0.00 0.00 50 1014.6
20260507130533 13 97 1.6 3.2 0.00 0.00 0.00 52 1014.6
20260507125549 12 74 1.6 3.2 0.00 0.00 0.00 52 1014.6
20260507124523 12 95 1.6 3.2 0.00 0.00 0.00 54 1014.6
20260507123518 11 92 3.2 4.8 0.00 0.00 0.00 55 1014.5
20260507122518 11 95 3.2 4.8 0.00 0.00 0.00 56 1014.6
20260507121527 11 82 3.2 4.8 0.00 0.00 0.00 57 1014.3
20260507120521 10 168 3.2 6.4 0.00 0.00 0.00 59 1014.3
20260507115517 10 103 3.2 4.8 0.00 0.00 0.00 61 1014.3
20260507114518 9 65 3.2 4.8 0.00 0.00 0.00 66 1014.2
20260507113531 7 86 3.2 6.4 0.00 0.00 0.00 70 1014.3
20260507112526 6 128 1.6 4.8 0.00 0.00 0.00 75 1014.1
20260507111522 5 109 1.6 3.2 0.00 0.00 0.00 75 1014.2
20260507110517 4 111 1.6 4.8 0.00 0.00 0.00 74 1014.1
20260507105530 4 103 0.0 3.2 0.00 0.00 0.00 74 1014.0
20260507104528 4 113 1.6 3.2 0.00 0.00 0.00 74 1014.0
20260507103522 4 90 1.6 3.2 0.00 0.00 0.00 74 1013.9
20260507102543 4 0.0 0.0 0.00 0.00 0.00 73 1013.8
20260507101518 4 90 1.6 3.2 0.00 0.00 0.00 73 1013.9
20260507100525 4 100 1.6 3.2 0.00 0.00 0.00 73 1013.9
20260507095540 4 90 1.6 3.2 0.00 0.00 0.00 73 1013.9
20260507094536 4 97 1.6 4.8 0.00 0.00 0.00 73 1013.9
20260507093517 4 86 3.2 4.8 0.00 0.00 0.00 73 1013.8
20260507092552 4 109 3.2 4.8 0.00 0.00 0.00 73 1013.8
20260507091526 4 120 3.2 4.8 0.00 0.00 0.00 73 1013.9
20260507090522 4 92 3.2 4.8 0.00 0.00 0.00 73 1013.9